Location: Robert Ferguson Observatory
(38.4385°N, 122.5078°W)
Time: 13:42:28
(UTC-08:00)

Daily predictions for brighter satellites

Satellite Brightness Start Highest point End
(mag) Time Altitude Azimuth Time Altitude Azimuth Time Altitude Azimuth
Cosmos 2112 Rocket 4.4 17:10:07 10° NNW 17:15:24 74° WSW 17:20:40 10° S
BREEZE-M DEB (TANK) 2.2 17:13:19 10° NW 17:15:28 88° NNE 17:19:53 10° SE
Meteor 1-4 Rocket 2.7 17:13:41 10° NNW 17:17:23 79° W 17:20:57 10° S
Meteor 1-18 Rocket 4.2 17:12:31 10° S 17:18:01 72° E 17:23:37 10° NNE
Cosmos 1812 3.6 17:15:19 10° SSW 17:19:06 53° W 17:22:55 10° N
USA 161 3.2 17:17:15 10° N 17:19:52 35° WNW 17:22:36 10° SW
Cosmos 1634 Rocket 4.1 17:13:48 10° S 17:19:59 88° E 17:26:16 10° N
Cosmos 1378 Rocket 4.0 17:16:53 10° SSW 17:21:17 68° W 17:25:44 10° N
Cosmos 2297 Rocket 3.5 17:21:06 10° N 17:24:49 18° NE 17:28:30 10° E
Cosmos 1666 3.7 17:25:58 10° NNE 17:29:08 25° ENE 17:32:15 10° SE
Cosmos 1943 Rocket 4.3 17:24:56 10° WSW 17:29:18 23° NW 17:33:42 10° N
Cosmos 1655 Rocket 4.2 17:23:30 10° N 17:29:44 54° E 17:35:58 10° SSE
SMAP 3.1 17:25:27 10° SSE 17:30:01 62° ENE 17:34:38 10° N
CZ-2C R/B 4.2 17:25:46 10° NNE 17:30:14 44° E 17:34:45 10° S
CZ-2C R/B 3.9 17:27:10 10° S 17:32:06 44° W 17:37:04 10° NNW
USA 238 DEB 4.5 17:25:54 10° NNW 17:32:10 32° NE 17:38:27 10° ESE
USA 238 4.5 17:26:00 10° NNW 17:32:15 32° NE 17:38:31 10° ESE
IRAS Rocket 4.3 17:32:54 10° SSE 17:38:23 86° WSW 17:43:54 10° NNW
Hubble Space Telescope 2.9 17:36:34 10° SW 17:39:33 19° S 17:42:33 10° SE
SKYMED 2 4.4 17:36:08 10° NE 17:39:59 30° E 17:43:49 10° SSE
AQUARIUS 4.1 17:36:08 10° SSE 17:40:37 79° ENE 17:45:07 10° N
Cosmos 990 Rocket 4.0 17:35:31 10° SSW 17:40:39 86° WNW 17:45:51 10° NNE
ALOS 3.4 17:37:07 10° ESE 17:40:43 23° ENE 17:44:20 10° NNE
ISS -2.0 17:38:38 10° NNW 17:40:53 17° NNE 17:42:09 14° NE
Abrixas rocket 3.0 17:41:15 10° W 17:44:23 42° NNW 17:46:50 15° NE
Cosmos 2026 Rocket 4.2 17:41:12 10° N 17:47:35 78° W 17:53:53 10° S
Cosmos 2266 Rocket 4.5 17:43:20 10° NNE 17:48:50 35° ENE 17:54:21 10° SE
Meteor 1-19 Rocket 4.3 17:44:32 10° S 17:50:03 59° E 17:55:42 10° NNE
Cosmos 2369 4.4 17:46:37 10° SSE 17:51:36 33° ESE 17:55:39 14° NE
Cosmos 2150 Rocket 4.3 17:46:20 10° SSW 17:51:48 77° WNW 17:57:17 10° NNE
CSL-04 Debris 4.4 17:46:56 10° S 17:52:19 74° WSW 17:57:43 10° NNW
Cosmos 2278 4.4 17:48:50 10° SSE 17:53:47 32° ESE 17:57:37 16° NE
EO 1 Del DPAF 3.8 17:54:33 14° NE 17:57:31 36° E 18:01:03 10° SSE
Meteor 1-12 Rocket 4.4 17:55:48 10° NNW 18:01:29 78° W 18:07:14 10° S
Meteor 1-28 Rocket 3.8 17:57:48 10° N 18:01:29 57° WNW 18:05:10 10° SSW
MOS 1 4.4 17:57:02 10° SE 18:02:32 53° ENE 18:08:02 10° N
SPOT 3 Rocket 3.9 17:57:47 10° SE 18:02:35 40° ENE 18:07:24 10° N
Cosmos 1743 2.6 18:00:57 10° N 18:04:50 89° E 18:08:43 10° S
Aureole 1 Rocket 4.4 18:00:30 10° NNW 18:06:28 75° WSW 18:14:06 10° S
Cosmos 1455 Rocket 2.9 18:03:53 10° N 18:08:19 77° E 18:12:42 10° S
MTI 3.6 18:06:20 14° NNE 18:09:01 77° ESE 18:12:15 10° S
PSLV R/B 3.4 18:08:27 10° SW 18:11:33 54° SSE 18:12:25 38° ESE
Cosmos 1544 Rocket 3.5 18:07:40 10° N 18:12:03 88° W 18:16:22 10° S
YAOGAN 1 2.6 18:08:45 10° SSE 18:13:04 86° WSW 18:17:26 10° NNW
ATLAS 2AS CENTAUR R/B 3.2 18:06:10 10° SW 18:13:52 74° NW 18:21:46 11° NNE
IRS-1A Rocket 4.4 18:09:46 10° S 18:15:24 79° WSW 18:20:59 10° NNW
Cosmos 158 Rocket 4.0 18:14:23 10° N 18:19:23 52° ENE 18:24:13 10° SE
FENGYUN 3A 3.6 18:14:53 10° SSE 18:20:08 57° ENE 18:25:24 10° N
Cosmos 1697 Rocket 3.4 18:16:33 10° SSE 18:21:32 33° ESE 18:22:51 30° ENE
Cosmos 389 Rocket 4.0 18:20:42 10° NNW 18:23:57 38° W 18:27:10 10° SSW
Atlas Centaur 2 3.0 18:20:52 10° WSW 18:25:03 28° S 18:27:20 18° SE
ATLAS 3B R/B 2.5 18:19:05 10° NNW 18:25:40 61° NE 18:32:05 10° SE
Delta 2 Rocket 4.1 18:20:35 10° W 18:26:00 63° S 18:28:26 29° ESE
Landsat 4 4.4 18:23:07 10° N 18:26:52 54° WNW 18:30:34 10° SSW
Cosmos 2082 3.8 18:21:39 10° NNW 18:27:06 48° ENE 18:32:31 10° SE
COSMO-SKYMED 1 2.7 18:23:46 10° N 18:28:07 74° WNW 18:32:25 10° SSW
MONITOR-E 4.1 18:26:16 10° S 18:29:18 80° WSW 18:32:21 10° NNW
METEOR-M 4.4 18:25:37 10° S 18:30:54 69° WSW 18:36:15 10° NNW
Cosmos 1271 Rocket 3.8 18:28:03 10° NNW 18:31:40 44° W 18:35:19 10° SSW
Meteor 1-23 Rocket 4.2 18:27:42 10° S 18:33:24 66° E 18:38:14 15° NNE
CZ-4 R/B 3.4 18:30:33 10° SSW 18:33:54 29° W 18:37:20 10° NW
NOAA 12 4.0 18:29:32 10° SSE 18:34:47 77° ENE 18:40:04 10° N
NOSS 3-4 (A) 3.9 18:29:29 10° S 18:35:12 40° ESE 18:36:35 35° E
NOSS 3-4 (C) 3.9 18:29:36 10° S 18:35:18 40° ESE 18:36:38 35° E
Cosmos 1269 Rocket 4.2 18:32:27 10° N 18:37:35 47° ENE 18:39:09 36° ESE
Cosmos 2227 Rocket 2.1 18:36:22 10° NNW 18:42:04 83° ENE 18:47:43 10° SSE
SJ 16-02 1.3 18:40:25 10° SSW 18:44:48 82° WNW 18:46:17 41° N
Cosmos 1125 Rocket 3.6 18:40:55 10° SSW 18:46:14 80° WNW 18:49:17 26° NNE
ERS-2 3.0 18:43:52 10° S 18:47:25 50° W 18:51:00 10° NNW
Okean 2 4.4 18:46:31 10° S 18:48:56 33° SSE 18:48:56 33° SSE
DELTA 2 R/B (1) 3.4 18:50:50 10° W 18:56:25 80° N 18:57:17 64° ENE
Cosmos 1048 Rocket 3.9 18:52:25 10° NNW 18:57:50 89° ENE 19:03:12 10° SSE
Cosmos 1980 Rocket 3.1 18:55:22 10° S 18:58:52 32° SE 18:58:52 32° SE
Cosmos 1241 Rocket 4.4 18:55:26 10° SSW 19:01:46 70° ESE 19:02:54 58° ENE
Nadezhda 2 Rocket 4.4 18:59:00 10° N 19:05:21 83° E 19:11:44 10° S
Meteor 2-11 Rocket 4.3 19:01:18 10° S 19:07:27 89° ESE 19:10:49 29° N
Cosmos 2297 Rocket 2.4 19:03:46 10° NNW 19:09:24 69° WSW 19:15:00 10° SSE
CENTAUR R/B 4.0 19:02:54 10° NNW 19:08:11 28° NNE 19:08:11 28° NNE
Cosmos 1025 Rocket 4.0 19:10:35 10° SSW 19:13:33 42° SSW 19:13:33 42° SSW
ISS -0.8 19:14:25 10° NW 19:14:50 13° NW 19:14:50 13° NW
ALOS 3.9 19:13:43 10° SSW 19:17:56 34° W 19:22:11 10° NNW
Hubble Space Telescope 3.1 19:17:15 10° SW 19:19:25 18° SSW 19:19:25 18° SSW
USA 238 DEB 4.3 19:16:31 10° NW 19:23:28 58° WSW 19:30:29 10° SSE
USA 238 4.3 19:16:37 10° NW 19:23:35 59° WSW 19:30:36 10° SSE
Gbstr 26 Del rocket 4.3 19:31:33 10° WSW 19:39:30 74° NW 19:39:46 74° NNW
NOSS 3-2 (A) 4.3 19:47:27 10° NW 19:55:05 66° WSW 19:56:40 55° SSW
NOSS 3-2 (C) 4.1 19:52:29 10° NW 19:59:26 73° WNW 19:59:26 73° WNW
Cosmos 1697 Rocket 4.2 20:00:23 10° WSW 20:04:39 31° WNW 20:04:39 31° WNW
